This is the latest recevied weather packets stored in our database for station/object VU3OPX-13. If no packets are shown the sender has not sent any weather packets the latest 10 day(s).
| Time | Temp. | Humidity | Pressure | Rain* | Wind** | Luminosity | Snow |
|---|---|---|---|---|---|---|---|
| 1788182090 | 23.89° C | 82% | 1011 hPa | 0 mm | - | - | - |
| 1788180303 | 23.33° C | 83% | 1011 hPa | 0 mm | - | - | - |
| 1788178516 | 25° C | 76% | 1010 hPa | 0 mm | - | - | - |
| 1788176728 | 25° C | 76% | 1010 hPa | 0 mm | - | - | - |
| 1788174941 | 26.11° C | 73% | 1010 hPa | 0 mm | - | - | - |
| 1788173154 | 25.56° C | 73% | 1010 hPa | 0 mm | - | - | - |
| 1788171366 | 26.67° C | 71% | 1010 hPa | 0 mm | - | - | - |
| 1788169577 | 26.67° C | 70% | 1010 hPa | 0 mm | - | - | - |
| 1788167791 | 27.22° C | 67% | 1010 hPa | 0 mm | - | - | - |
| 1788166003 | 27.22° C | 67% | 1010 hPa | 0 mm | - | - | - |
| 1788164215 | 27.78° C | 66% | 1010 hPa | 0 mm | - | - | - |
| 1788162428 | 27.22° C | 67% | 1010 hPa | 0 mm | - | - | - |
| 1788160640 | 27.22° C | 69% | 1011 hPa | 0 mm | - | - | - |
| 1788158852 | 27.22° C | 67% | 1011 hPa | 0 mm | - | - | - |
| 1788157064 | 26.67° C | 69% | 1012 hPa | 0 mm | - | - | - |
| 1788155277 | 26.67° C | 69% | 1012 hPa | 0 mm | - | - | - |
| 1788153490 | 26.67° C | 71% | 1013 hPa | 0 mm | - | - | - |
| 1788151702 | 26.11° C | 70% | 1013 hPa | 0 mm | - | - | - |
| 1788149915 | 25.56° C | 74% | 1013 hPa | 0 mm | - | - | - |
| 1788148128 | 25.56° C | 74% | 1013 hPa | 0 mm | - | - | - |
| 1788146340 | 24.44° C | 80% | 1012 hPa | 0 mm | - | - | - |
| 1788144553 | 23.89° C | 79% | 1012 hPa | 0 mm | - | - | - |
| 1788142765 | 22.22° C | 88% | 1012 hPa | 0 mm | - | - | - |
| 1788140978 | 22.22° C | 88% | 1012 hPa | 0 mm | - | - | - |
| 1788139191 | 21.11° C | 93% | 1011 hPa | 0 mm | - | - | - |
* Rain latest hour (hover to see other rain measurements)
** Current wind speed in m/s (hover to see current wind gust speed)